FW7124 Weather Reports


time (UTC)temp
C
wind
direction
speed
KPH
gust
KPH
rain 1hr
cm
rain 24hr
cm
rain mn
cm
humidity
%
barometer
mb
20260506212411 8 0 0.0 0.0 0.00 0.00 0.00 72 1015.5
20260506211904 9 5 0.0 0.0 0.00 0.00 0.00 71 1015.5
20260506210852 9 5 0.0 0.0 0.00 0.00 0.00 70 1015.4
20260506205416 10 5 0.0 0.0 0.00 0.00 0.00 69 1015.3
20260506204409 10 5 0.0 0.0 0.00 0.00 0.00 70 1015.3
20260506202408 10 5 0.0 0.0 0.00 0.00 0.00 69 1015.1
20260506201408 10 5 0.0 0.0 0.00 0.00 0.00 68 1015.0
20260506200409 11 5 0.0 0.0 0.00 0.00 0.00 68 1014.9
20260506195407 11 5 0.0 1.6 0.00 0.00 0.00 65 1014.9
20260506194408 11 5 0.0 1.6 0.00 0.00 0.00 68 1014.8
20260506193403 11 5 0.0 1.6 0.00 0.00 0.00 66 1014.7
20260506192404 11 5 0.0 1.6 0.00 0.00 0.00 66 1014.6
20260506191403 11 355 0.0 1.6 0.00 0.00 0.00 66 1014.6
20260506190401 11 355 0.0 1.6 0.00 0.00 0.00 65 1014.6
20260506185900 11 25 0.0 1.6 0.00 0.00 0.00 64 1014.5
20260506184405 11 25 0.0 3.2 0.00 0.00 0.00 63 1014.4
20260506183359 12 50 0.0 3.2 0.00 0.00 0.00 63 1014.3
20260506182358 12 61 0.0 1.6 0.00 0.00 0.00 64 1014.4
20260506181359 12 33 0.0 0.0 0.00 0.00 0.00 65 1014.3
20260506180358 12 33 0.0 0.0 0.00 0.00 0.00 64 1014.2
20260506175401 12 33 0.0 0.0 0.00 0.00 0.00 63 1014.1
20260506174842 12 33 0.0 3.2 0.00 0.00 0.00 61 1013.9
20260506173358 12 38 0.0 3.2 0.00 0.00 0.00 62 1013.8
20260506172357 12 9 0.0 4.8 0.00 0.00 0.00 62 1013.9
20260506171356 13 70 0.0 4.8 0.00 0.00 0.00 57 1013.7
20260506170356 12 50 0.0 1.6 0.00 0.00 0.00 59 1013.8
20260506165356 12 81 0.0 0.0 0.00 0.00 0.00 59 1013.7
20260506164356 12 81 0.0 4.8 0.00 0.00 0.00 60 1013.7
20260506163354 12 55 0.0 4.8 0.00 0.00 0.00 60 1013.8
20260506162904 12 13 0.0 3.2 0.00 0.00 0.00 59 1013.8
20260506161354 13 13 1.6 4.8 0.00 0.00 0.00 58 1013.8
20260506160354 13 355 0.0 3.2 0.00 0.00 0.00 57 1013.8
20260506155353 13 33 0.0 3.2 0.00 0.00 0.00 56 1013.8
20260506154352 13 57 1.6 4.8 0.00 0.00 0.00 56 1013.9
20260506153354 13 342 1.6 4.8 0.00 0.00 0.00 55 1013.9
20260506152349 14 20 1.6 4.8 0.00 0.00 0.00 54 1013.9
20260506151350 15 24 1.6 4.8 0.00 0.00 0.00 52 1013.8
20260506150348 15 350 1.6 3.2 0.00 0.00 0.00 50 1013.8
20260506145347 15 53 0.0 4.8 0.00 0.00 0.00 50 1013.8
20260506144347 15 329 1.6 4.8 0.00 0.00 0.00 48 1013.9
20260506143345 14 343 0.0 1.6 0.00 0.00 0.00 50 1013.8
20260506142345 14 351 1.6 6.4 0.00 0.00 0.00 49 1013.8
20260506141344 15 348 1.6 8.0 0.00 0.00 0.00 52 1013.8
20260506140344 15 5 1.6 4.8 0.00 0.00 0.00 49 1013.9
20260506135345 16 22 0.0 4.8 0.00 0.00 0.00 48 1013.9
20260506134342 16 329 1.6 4.8 0.00 0.00 0.00 46 1013.9
20260506133341 16 5 1.6 4.8 0.00 0.00 0.00 52 1014.0
20260506132342 15 53 1.6 3.2 0.00 0.00 0.00 49 1013.8
20260506131340 15 346 1.6 4.8 0.00 0.00 0.00 52 1013.9
20260506130341 15 247 1.6 4.8 0.00 0.00 0.00 54 1014.1
20260506125340 15 16 1.6 4.8 0.00 0.00 0.00 54 1014.1
20260506124340 15 245 1.6 6.4 0.00 0.00 0.00 52 1014.1
20260506123341 15 50 1.6 8.0 0.00 0.00 0.00 55 1014.1
20260506122341 13 17 0.0 4.8 0.00 0.00 0.00 56 1014.2
20260506121340 13 5 1.6 4.8 0.00 0.00 0.00 53 1014.2
20260506120340 13 22 1.6 4.8 0.00 0.00 0.00 55 1014.2
20260506115340 14 330 0.0 4.8 0.00 0.00 0.00 57 1014.3
20260506114341 13 346 0.0 4.8 0.00 0.00 0.00 58 1014.4
20260506113822 13 51 1.6 6.4 0.00 0.00 0.00 58 1014.4
20260506112338 13 40 1.6 8.0 0.00 0.00 0.00 58 1014.5
20260506111338 13 24 1.6 12.9 0.00 0.00 0.00 58 1014.5
20260506110336 13 81 1.6 11.3 0.00 0.00 0.00 59 1014.4
20260506105336 13 11 1.6 11.3 0.00 0.00 0.00 59 1014.5
20260506104332 13 329 1.6 4.8 0.00 0.00 0.00 56 1014.5
20260506103331 13 5 1.6 4.8 0.00 0.00 0.00 56 1014.4
20260506102330 13 24 1.6 9.7 0.00 0.00 0.00 59 1014.4
20260506101330 12 350 1.6 9.7 0.00 0.00 0.00 61 1014.4
20260506100330 12 20 0.0 3.2 0.00 0.00 0.00 59 1014.4
20260506095330 12 339 1.6 4.8 0.00 0.00 0.00 63 1014.6
20260506094330 12 38 1.6 4.8 0.00 0.00 0.00 61 1014.5
20260506093330 11 11 1.6 4.8 0.00 0.00 0.00 62 1014.5
20260506092330 11 54 1.6 4.8 0.00 0.00 0.00 66 1014.5
20260506091331 11 299 0.0 6.4 0.00 0.00 0.00 65 1014.5
20260506090330 11 13 1.6 8.0 0.00 0.00 0.00 67 1014.5
20260506085343 11 69 0.0 0.0 0.00 0.00 0.00 70 1014.5
20260506084823 10 72 0.0 3.2 0.00 0.00 0.00 72 1014.5
20260506083332 10 10 0.0 3.2 0.00 0.00 0.00 73 1014.6
20260506082816 9 9 0.0 4.8 0.00 0.00 0.00 74 1014.7
20260506081330 9 26 1.6 4.8 0.00 0.00 0.00 75 1014.9
20260506080331 9 22 1.6 4.8 0.00 0.00 0.00 76 1014.6
20260506073330 8 0 0.0 3.2 0.00 0.00 0.00 79 1014.6
20260506072805 8 324 0.0 3.2 0.00 0.00 0.00 78 1014.6
20260506071324 8 355 0.0 3.2 0.00 0.00 0.00 79 1014.5
20260506070324 8 355 0.0 3.2 0.00 0.00 0.00 78 1014.3
20260506062321 8 0 0.0 3.2 0.00 0.00 0.00 80 1014.2
20260506061800 8 15 0.0 3.2 0.00 0.00 0.00 82 1014.3
20260506060320 7 45 0.0 3.2 0.00 0.00 0.00 82 1014.3
20260506051315 8 340 0.0 3.2 0.00 0.00 0.00 82 1014.0
20260506050318 8 5 1.6 3.2 0.00 0.00 0.00 82 1013.9
20260506044315 8 350 0.0 4.8 0.00 0.00 0.00 83 1013.8
20260506042754 8 35 0.0 3.2 0.00 0.00 0.00 82 1013.8
20260506041312 8 35 0.0 3.2 0.00 0.00 0.00 82 1013.9
20260506040311 8 42 0.0 3.2 0.00 0.00 0.00 83 1013.8
20260506035309 8 42 0.0 3.2 0.00 0.00 0.00 84 1013.8
20260506034310 8 345 0.0 1.6 0.00 0.00 0.00 83 1013.7
20260506033307 8 323 0.0 0.0 0.00 0.00 0.00 83 1013.7
20260506032307 8 323 0.0 0.0 0.00 0.00 0.00 83 1013.7
20260506031306 9 323 0.0 0.0 0.00 0.00 0.00 84 1013.7
20260506030304 9 323 0.0 0.0 0.00 0.00 0.00 84 1013.7
20260506025310 9 319 0.0 0.0 0.00 0.00 0.00 84 1013.6
20260506024306 9 338 0.0 0.0 0.00 0.00 0.00 83 1013.7
20260506023303 9 338 0.0 0.0 0.00 0.00 0.00 83 1013.7
20260506022754 9 341 0.0 0.0 0.00 0.00 0.00 83 1013.7
20260506021305 9 348 0.0 0.0 0.00 0.00 0.00 83 1013.8
20260506020750 9 348 0.0 0.0 0.00 0.00 0.00 83 1013.9
20260506015305 9 348 0.0 0.0 0.00 0.00 0.00 83 1013.9
20260506014259 9 348 0.0 0.0 0.00 0.00 0.00 82 1013.9
20260506013303 9 348 0.0 0.0 0.00 0.00 0.00 82 1013.8
20260506012258 9 346 0.0 0.0 0.00 0.00 0.00 82 1013.9
20260506011259 10 346 0.0 0.0 0.00 0.00 0.00 81 1013.9
20260506010258 10 346 0.0 0.0 0.00 0.00 0.00 81 1013.9
20260506005300 10 355 0.0 0.0 0.00 0.00 0.00 80 1013.9
20260506004259 10 11 0.0 3.2 0.00 0.00 0.00 78 1013.9
20260506003258 10 5 0.0 3.2 0.00 0.00 0.00 78 1014.0
20260506002258 10 355 0.0 4.8 0.00 0.00 0.00 78 1014.0
20260506001254 10 294 0.0 4.8 0.00 0.00 0.00 77 1013.9
20260506000733 10 350 0.0 4.8 0.00 0.00 0.00 78 1013.9
20260505235252 10 5 0.0 4.8 0.00 0.00 0.00 78 1014.0
20260505234252 11 355 1.6 4.8 0.00 0.00 0.00 77 1014.0
20260505233253 11 24 1.6 4.8 0.00 0.00 0.00 77 1013.9
20260505232251 11 28 1.6 6.4 0.00 0.00 0.00 77 1013.9
20260505231251 11 22 1.6 8.0 0.00 0.00 0.00 76 1013.8
20260505230724 11 355 1.6 3.2 0.00 0.00 0.00 76 1013.9
20260505224249 11 42 0.0 3.2 0.00 0.00 0.00 75 1013.8
20260505223250 11 11 0.0 3.2 0.00 0.00 0.00 75 1013.8
20260505222250 11 331 0.0 3.2 0.00 0.00 0.00 75 1013.8
20260505221249 11 12 0.0 1.6 0.00 0.00 0.00 76 1013.9
20260505220727 12 22 0.0 3.2 0.00 0.00 0.00 76 1013.8
20260505215736 12 18 0.0 3.2 0.00 0.00 0.00 75 1013.8
20260505214241 12 5 0.0 4.8 0.00 0.00 0.00 76 1013.8
20260505213241 12 355 0.0 4.8 0.00 0.00 0.00 75 1013.8